Weather in Krasnyy Mayak

Russia / Vladimir Oblast     56°02′56″N   41°21′57″E
temp.,
°C
wind,
m/s
gust,
m/s
humid.,
%
clouds,
%
prec.,
mm/h
press.,
hPa
HPBL,
m
6 august, fri
fri600:00+17ene2366100 0.1 101575
03:00+16se3874100 0.1 1014164
06:00+16sse397763 0.1 1014257
09:00+19s3781100 0.9 1015433
12:00+18se2583100 0.1 1015178
15:00+20ene3475100 0.2 1013197
18:00+17ene3697100 2.6 1014188
21:00+16ene41096100 3.0 1013281
7 august, sat
sat700:00+16e5129458 0.1 1012331
03:00+15e379740 0.3 1012193
06:00+16e259569 0.5 1012140
09:00+21sse366780 0.7 1012452
12:00+26s265312 1.0 1012705
15:00+30s37349 1.0 10121660
18:00+23sse31050100 0.0 1012281
21:00+21se1158100 0.0 101317
8 august, sun
sun800:00+20se41363100 0.0 1013305
03:00+22sse4145495 0.0 1014437
06:00+20sse41155100 0.0 1014286
09:00+25sse4842100 0.0 1014434
12:00+30s462985 0.0 10141296
15:00+28w3539100 0.0 1015628
18:00+22w3761100 0.0 1016198
21:00+21n1278100 0.0 101744
9 august, mon
mon900:00+20nw1181100 0.0 101813
03:00+18nw11766 0.0 101811
06:00+18nw11756 0.0 101924
09:00+25wnw235489 0.0 1019514
12:00+28wsw35433 0.0 10191455
15:00+30w35390 0.0 10181841
18:00+28wnw2449100 0.0 1018265
21:00+21n1170100 0.4 101911
10 august, tue
tue1000:00+19sw2273100 0.1 102016
03:00+19n1184100 0.8 102011
06:00+19wnw2286100 0.3 102034
09:00+19ne2486100 0.3 101991
12:00+21ene127692 0.0 101998
15:00+23sw3565100 0.0 1019408
18:00+19nnw3891100 0.2 1019254
21:00+18nne3892100 0.4 1018238